Rick Ebbinge

Rick Ebbinge

Statistiques 2019

  • Courses courues : 18
  • Nb de victoires : 8
  • Nb de places : 10
  • Écart gagnant : 1
  • Réussite à la gagne : 44%
  • Réussite à la place : 56%
Musique : 7a 1a 2a 5a 1a 6a 6a 4a 1a 7a 1a 4a 4a 1a 1a 2a 1a 1a
DateRangCatégorieAlloc.Dist.HippodromeChevalRed. KmSpé.
18/01/19 7 Trot 5 500€ 2 100m Hol-Wolvega Victor Zs 1'17''2 Attelé
18/01/19 1 Trot 4 400€ 2 100m Hol-Wolvega Zed Gifont 1'17''3 Attelé
18/01/19 2 Trot 6 600€ 2 100m Hol-Wolvega Kees Bokma 1'15''1 Attelé
14/01/19 5 Trot 5 000€ 2 100m Hol-Wolvega Emkih de Vandel 1'15"5 Attelé
14/01/19 1 Trot 4 400€ 2 120m Hol-Wolvega Zuleika Font 1'15"4 Attelé
14/01/19 6 Trot 5 500€ 2 100m Hol-Wolvega Hurricane 1'16"3 Attelé
14/01/19 6 Trot 2 200€ 2 100m Hol-Wolvega Umbra 1'15"5 Attelé
14/01/19 4 Trot 3 000€ 2 600m Hol-Wolvega Vanychof 1'16"4 Attelé
11/01/19 1 Trot 2 200€ 2 100m Hol-Wolvega Good Morning Elge 1'20"8 Attelé
11/01/19 7 Trot 10 000€ 2 100m Hol-Wolvega Comete de Baffais 1'16"3 Attelé
11/01/19 1 Trot 10 000€ 2 100m Hol-Wolvega Cap Est de Mai 1'16"2 Attelé
11/01/19 4 Trot 9 900€ 2 600m Hol-Wolvega Urbanio 1'15"5 Attelé
07/01/19 4 Trot 6 600€ 2 600m Hol-Wolvega Confidential Bond 1'17"4 Attelé
07/01/19 1 Trot 4 400€ 2 100m Hol-Wolvega Harmke Schermer 1'17"2 Attelé
04/01/19 1 Trot 5 500€ 2 100m Hol-Wolvega Highlander 1'15"3 Attelé
04/01/19 2 Trot 10 000€ 2 100m Hol-Wolvega Tsar d'Andain 1'14"5 Attelé
04/01/19 1 Trot 6 600€ 2 100m Hol-Wolvega Unar Bi 1'14"7 Attelé
04/01/19 1 Trot 5 000€ 2 600m Hol-Wolvega Empereur Face 1'16"3 Attelé
19/12/18 1 Trot 36 000€ 2 700m Vincennes Feel Good Desbois 1'15"3 Attelé lire

Principal animateur, s'est montré facilement le plus fort pour finir.

27/11/18 1 Trot 21 000€ 2 850m Mauquenchy Feel Good Desbois 1'17"3 Attelé
21/11/18 1 Trot 5 400€ 2 850m Be-Mons Iron Vivant 1'14"6 Attelé
21/11/18 1 Trot 5 400€ 2 300m Be-Mons Tuxedo Bi 1'13"8 Attelé
16/11/18 1 Trot 5 400€ 2 300m Be-Mons Kees Bokma 1'13"9 Attelé
16/11/18 1 Trot 5 040€ 1 750m Be-Mons Hedy Beuckenswijk 1'12"4 Attelé
16/11/18 1 Trot 5 040€ 2 300m Be-Mons Hardwell de Heot 1'16"4 Attelé
16/11/18 D Trot 5 040€ 2 850m Be-Mons Kidspeed Vrijthout Attelé
16/11/18 7 Trot 6 000€ 2 300m Be-Mons Elite Love Blue 1'16"8 Attelé
06/11/18 4 Trot 5 040€ 2 300m Be-Mons Hardwell de Heot 1'15"3 Attelé
06/11/18 D Trot 6 000€ 2 850m Be-Mons Cazio Josselyn Attelé
06/11/18 1 Trot 6 000€ 2 850m Be-Mons Tuxedo Bi 1'15"4 Attelé
06/11/18 3 Trot 5 400€ 2 300m Be-Mons Kaela Vrijthout 1'14"6 Attelé
28/10/18 2 Trot 15 000€ 2 700m La Capelle Empereur Face 1'17"9 Attelé
28/10/18 1 Trot 15 000€ 2 700m La Capelle Feel Good Desbois 1'18"2 Attelé
26/10/18 2 Trot 4 800€ 1 750m Be-Mons My Love Zen 1'19"2 Attelé
26/10/18 7 Trot 6 000€ 1 750m Be-Mons Ucayali Bi 1'16"5 Attelé
26/10/18 1 Trot 6 000€ 2 300m Be-Mons Gustafson 1'14"2 Attelé
26/10/18 0 Trot 120 000€ 2 300m Be-Mons Voici Faverol Attelé lire

N'a joué aucun rôle.

26/10/18 0 Trot 35 000€ 2 300m Be-Mons La Luna Vrijthout Attelé
26/10/18 3 Trot 30 000€ 2 300m Be-Mons Kaela Vrijthout 1'16"7 Attelé
26/10/18 D Trot 6 000€ 2 300m Be-Mons Betty Somolli Attelé
21/10/18 2 Trot 5 000€ 2 600m Hol-Wolvega Epique du Loir 1'16"1 Attelé
14/10/18 7 Trot 150 000€ 2 200m Ger-Hamburg Vaduz Wise As 1'12"8 Attelé
05/10/18 1 Trot 16 000€ 2 850m Mauquenchy Clopin du Boulay 1'15"8 Attelé
24/09/18 2 Trot 5 040€ 2 300m Be-Mons Kees Bokma 1'15"1 Attelé
24/09/18 D Trot 6 000€ 2 300m Be-Mons Donuts Cadence Attelé
24/09/18 1 Trot 6 000€ 2 300m Be-Mons Clopin du Boulay Attelé
16/09/18 2 Trot 2 300m Be-Mons Kaela Vrijthout 1'14"6 Attelé
13/09/18 1 Trot 22 000€ 2 600m Reims First Coglais 1'16"3 Attelé
13/09/18 D Trot 20 000€ 2 600m Reims Entertain You Attelé
01/09/18 1 Trot 11 770€ 2 140m Swe-Jagersro Gustafson 1'12"0 Attelé